Quillayute, WA

11:09 AM PDT on May 28, 2017 (GMT -0700)
Quillayute

Weather History for KUIL - November, 2011

Change the Weather History Date:

Tuesday, November 8, 2011

  Actual Average Record
Temperature  
Mean Temperature 50 °F 46 °F  
Max Temperature 54 °F 52 °F 63 °F (2016)
Min Temperature 45 °F 39 °F 28 °F (1979)
Degree Days  
Heating Degree Days 15 19  
Month to date heating degree days 150  
Since 1 July heating degree days 1240  
Cooling Degree Days 0 0  
Month to date cooling degree days 0  
Year to date cooling degree days 19  
Moisture  
Dew Point 45 °F    
Average Humidity 92    
Maximum Humidity 100    
Minimum Humidity 74    
Precipitation  
Precipitation 0.55 in 0.50 in 3.59 in (1989)
Month to date precipitation 3.90  
Year to date precipitation 74.93  
Sea Level Pressure  
Sea Level Pressure 30.19 in    
Wind  
Wind Speed 5 mph (ESE)    
Max Wind Speed 13 mph    
Max Gust Speed 18 mph    
Visibility 7 miles    
Events Rain    
T = Trace of Precipitation, MM = Missing Value Source: NWS Daily Summary

Daily Weather History Graph

Daily Weather History Graph

Search for Another Location

Airport or City:

Trip Planner

Search our weather history database for the weather conditions in past years. The results will help you decide how hot, cold, wet, or windy it might be!

Date:

Astronomy

Nov. 08, 2011 Rise Set
Actual Time 7:13 AM PST 4:49 PM PST
Civil Twilight 6:40 AM PST 5:22 PM PST
Nautical Twilight 6:03 AM PST 5:59 PM PST
Astronomical Twilight 5:27 AM PST 6:36 PM PST
Moon 3:35 PM PST (11/8) 5:13 AM PST (11/8)
Length of Visible Light 10h 42m
Length of Day
9h 36m
Waxing Gibbous, 96% of the Moon is Illuminated
Nov 8
Waxing Gibbous
Nov 10
Full
Nov 18
Last Quarter
Nov 24
New
Dec 2
First Quarter

Hourly Weather History & Observations

Time (PST) Temp. Windchill Dew Point Humidity Pressure Visibility Wind Dir Wind Speed Gust Speed Precip Events Conditions
12:06 AM 46.4 °F 45.2 °F 46.4 °F 100% 30.21 in 4.0 mi South 3.5 mph - 0.01 in Rain Light Rain
12:20 AM 48.2 °F - 46.4 °F 93% 30.21 in 2.5 mi Calm Calm - 0.03 in Rain Rain
12:23 AM 48.2 °F - 46.4 °F 93% 30.21 in 3.0 mi Calm Calm - 0.05 in Rain Rain
12:34 AM 46.4 °F - 46.4 °F 100% 30.21 in 5.0 mi Calm Calm - 0.07 in Rain Light Rain
12:53 AM 46.9 °F - 46.9 °F 100% 30.21 in 8.0 mi Calm Calm - 0.09 in Rain Light Rain
1:12 AM 48.2 °F - 46.4 °F 93% 30.21 in 3.0 mi Calm Calm - 0.02 in Rain Light Rain
1:18 AM 48.2 °F - 46.4 °F 93% 30.21 in 1.8 mi Calm Calm - 0.04 in Rain Heavy Rain
1:30 AM 48.2 °F - 46.4 °F 93% 30.20 in 3.0 mi Calm Calm - 0.11 in Rain Light Rain
1:40 AM 48.2 °F - 46.4 °F 93% 30.20 in 4.0 mi Calm Calm - 0.12 in Rain Rain
1:51 AM 48.2 °F - 46.4 °F 93% 30.20 in 4.0 mi SE 3.5 mph - 0.16 in Rain Light Rain
1:53 AM 48.0 °F - 46.9 °F 96% 30.21 in 5.0 mi SE 3.5 mph - 0.16 in Rain Light Rain
2:45 AM 46.4 °F 45.2 °F 46.4 °F 100% 30.20 in 5.0 mi East 3.5 mph - 0.07 in Rain Light Rain
2:53 AM 46.9 °F - 46.0 °F 97% 30.21 in 10.0 mi ENE 4.6 mph - 0.07 in Rain Light Rain
3:00 AM - - - N/A% - - North - - N/A   Unknown
3:53 AM 46.9 °F - 46.0 °F 97% 30.22 in 10.0 mi Calm Calm - 0.02 in Rain Light Rain
4:51 AM 46.4 °F 44.3 °F 44.6 °F 93% 30.19 in 4.0 mi East 4.6 mph - 0.09 in Rain Light Rain
4:53 AM 46.0 °F 43.9 °F 45.0 °F 96% 30.20 in 4.0 mi East 4.6 mph - 0.09 in Rain Light Rain
5:20 AM 46.4 °F 45.2 °F 44.6 °F 93% 30.19 in 5.0 mi East 3.5 mph - 0.05 in Rain Rain
5:32 AM 46.4 °F 44.3 °F 44.6 °F 93% 30.19 in 9.0 mi East 4.6 mph - 0.06 in Rain Light Rain
5:53 AM 46.0 °F 43.9 °F 45.0 °F 96% 30.20 in 10.0 mi East 4.6 mph - 0.06 in   Overcast
6:53 AM 46.0 °F 43.9 °F 45.0 °F 96% 30.20 in 6.0 mi ESE 4.6 mph - 0.03 in Rain Light Rain
7:53 AM 46.0 °F 44.8 °F 45.0 °F 96% 30.21 in 4.0 mi East 3.5 mph - 0.02 in Rain Light Rain
8:41 AM 46.4 °F 45.2 °F 46.4 °F 100% 30.20 in 6.0 mi ESE 3.5 mph - 0.01 in   Overcast
8:50 AM 46.4 °F 45.2 °F 46.4 °F 100% 30.21 in 10.0 mi ESE 3.5 mph - 0.01 in   Overcast
8:53 AM 46.9 °F - 46.0 °F 97% 30.21 in 10.0 mi SE 5.8 mph - 0.01 in   Overcast
9:00 AM - - - N/A% - - North - - N/A   Unknown
9:53 AM 48.0 °F - 46.0 °F 93% 30.22 in 10.0 mi SE 5.8 mph - N/A   Overcast
10:53 AM 50.0 °F - 46.9 °F 89% 30.21 in 10.0 mi SSE 9.2 mph - N/A   Overcast
11:53 AM 51.1 °F - 46.9 °F 86% 30.20 in 10.0 mi SE 8.1 mph - N/A   Overcast
12:53 PM 53.1 °F - 45.0 °F 74% 30.19 in 10.0 mi SSE 6.9 mph 18.4 mph N/A   Clear
1:53 PM 53.1 °F - 45.0 °F 74% 30.19 in 10.0 mi South 6.9 mph - N/A   Partly Cloudy
2:53 PM 52.0 °F - 44.1 °F 74% 30.18 in 10.0 mi SSE 5.8 mph - N/A   Mostly Cloudy
3:53 PM 51.1 °F - 44.1 °F 77% 30.17 in 10.0 mi SE 3.5 mph - N/A   Clear
4:53 PM 48.0 °F - 43.0 °F 83% 30.17 in 10.0 mi Calm Calm - N/A   Clear
5:53 PM 46.0 °F 42.5 °F 44.1 °F 93% 30.16 in 10.0 mi East 6.9 mph - N/A   Clear
6:53 PM 45.0 °F 40.6 °F 43.0 °F 93% 30.15 in 10.0 mi East 8.1 mph - N/A   Mostly Cloudy
7:53 PM 45.0 °F 41.8 °F 43.0 °F 93% 30.16 in 10.0 mi East 5.8 mph - N/A   Mostly Cloudy
8:53 PM 45.0 °F 41.2 °F 43.0 °F 93% 30.16 in 10.0 mi ENE 6.9 mph - N/A   Overcast
9:53 PM 45.0 °F 41.2 °F 43.0 °F 93% 30.17 in 10.0 mi ENE 6.9 mph - N/A   Overcast
10:00 PM - - - N/A% - - North - - N/A   Unknown
10:53 PM 46.0 °F 43.1 °F 42.1 °F 86% 30.16 in 10.0 mi East 5.8 mph - N/A   Overcast
11:03 PM 44.6 °F 40.7 °F 42.8 °F 93% 30.15 in 10.0 mi East 6.9 mph - N/A   Overcast
11:53 PM 46.0 °F 42.5 °F 42.1 °F 86% 30.15 in 10.0 mi East 6.9 mph - N/A   Overcast